Location: Namasale
(1.5000°N, 32.6167°E)
Time: 08:11:31
(UTC+00:00)

Courier 1B - Pass Details

Date: 21 April 2021
Orbit: 962 x 1209 km, 28.3° (Epoch: 15 May)

Event Time Altitude Azimuth Distance (km) Brightness Sun altitude
Rises 16:37:28 0° 310° (NW) 3,663 11.7 -11.7°
Reaches altitude 10° 16:40:09 10° 316° (NW) 2,738 10.8 -12.4°
Maximum altitude 16:46:34 50° 30° (NNE) 1,285 8.0 -13.9°
Enters shadow 16:51:09 21° 96° (E) 2,192 8.7 -15.1°
Drops below altitude 10° 16:53:21 10° 104° (ESE) 2,901 - -15.6°
Sets 16:56:16 0° 109° (ESE) 3,898 - -16.3°
